Location: ????????
(55.4000°N, 39.1167°E)
Time: 04:27:11
(UTC+00:00)

Meteor 1-10 Rocket - Pass Details

Date: 19 May 2025
Orbit: 834 x 910 km, 81.3° (Epoch: 19 June)

Event Time Altitude Azimuth Distance (km) Brightness Sun altitude
Exits shadow 20:11:57 13° 194° (SSW) 2,342 6.0 -13.3°
Maximum altitude 20:17:14 86° 283° (WNW) 907 4.4 -13.5°
Drops below altitude 10° 20:23:06 10° 14° (NNE) 2,560 7.7 -13.7°
Sets 20:25:32 0° 15° (NNE) 3,492 8.6 -13.8°
